www.pogodaiklimat.ru

Погода и климат >> Архив погоды >> Россия >> Якутия >> Себян-Кюель


ПОГОДА в Себян-Кюеле

  • Прогноз погоды в Себян-Кюеле
  • Монитор погоды в Себян-Кюеле
  • Климат города

АРХИВ ПОГОДЫ в Себян-Кюеле

Время (UTC), дата Ветер
(напр.,м/с)
 
Видим.   Явления Облачность Т
(С)
Тd
(С)
f
(%)
Тe
(С)
Тes
(С)
Комфортность P
(гПа)
Po
(гПа)
Тmin
(С)
Tmax
(С)
R
(мм)
R24
(мм)
S
(см)
03 19.02 штиль 0 50 км 10/0 2000 м
[As trans Ci fib]
-30.4 -32.7 80 -30 -29 1020.9 916.1
06 19.02 штиль 0 50 км 10/0
[Ci fib]
-28.4 -30.8 80 -28 -28 1019.4 915.6
09 19.02 штиль 0 50 км 10/0
[Ci fib]
-35.6 -37.1 86 -36 -36 опасность
обморожения
1022.6 915.5
12 19.02 З 1 50 км 10/0
[As trans]
-34.0 -35.5 86 -39 -39 опасность
обморожения
1021.3 915.0 -28.4
15 19.02 З 1 50 км 10/0 2000 м
[As trans Ci fib]
-37.2 -38.8 85 -42 -42 опасность
обморожения
1021.9 914.2
18 19.02 З 1 50 км 10/0 2000 м
[As trans Ci fib]
-38.5 -40.1 85 -44 -44 опасность
обморожения
1021.9 913.6
21 19.02 штиль 0 50 км 10/0 2000 м
[As trans Ci fib]
-40.0 -41.5 85 -40 -40 опасность
обморожения
1022.3 913.4
00 20.02 штиль 0 2000 м слабый снег 10/10 660 м
[St]
-31.0 -32.8 84 -31 -31 опасность
обморожения
1016.1 911.6 -40.5 36
03 20.02 штиль 0 50 км в посл. час снег 9/9 600 м
[St Ac As]
-27.5 -29.9 80 -28 -27 1013.5 910.6
06 20.02 штиль 0 50 км 6/0 2000 м
[Ac trans]
-24.0 -27.2 75 -24 -24 1011.0 909.8
09 20.02 штиль 0 50 км 3/0 2000 м
[Ac trans]
-31.4 -33.0 86 -31 -31 опасность
обморожения
1014.6 910.0
12 20.02 штиль 0 50 км ясно -33.0 -34.7 85 -33 -33 опасность
обморожения
1015.4 910.1 -24.0 0.0
15 20.02 З 1 50 км ясно -38.8 -40.5 84 -44 -44 опасность
обморожения
1017.5 909.6
18 20.02 З 2 50 км ясно -39.6 -41.0 86 -49 -49 опасность
обморожения
1017.5 909.2
21 20.02 З 2 50 км ясно -40.5 -42.0 85 -50 -50 опасность
обморожения
1017.3 908.7
00 21.02 З 2 50 км ясно -39.6 -41.0 86 -49 -48 опасность
обморожения
1018.1 909.8 -41.5 36
03 21.02 З 1 50 км ясно -34.6 -36.1 86 -39 -38 опасность
обморожения
1016.0 910.0
06 21.02 Ю 1 50 км ясно -26.2 -30.1 70 -30 -29 1012.4 910.1
09 21.02 З 1 50 км ясно -31.8 -34.1 80 -36 -36 опасность
обморожения
1016.7 911.8
12 21.02 З 2 50 км ясно -39.2 -40.5 87 -48 -48 опасность
обморожения
1022.3 913.7 -26.0
15 21.02 З 2 50 км ясно -37.6 -39.3 84 -46 -46 опасность
обморожения
1022.3 914.4
18 21.02 З 1 50 км ясно -38.0 -39.7 84 -43 -43 опасность
обморожения
1023.2 915.0
21 21.02 З 1 50 км ясно -37.2 -38.8 85 -42 -42 опасность
обморожения
1023.3 915.5
00 22.02 З 2 50 км ясно -39.4 -41.0 85 -48 -48 опасность
обморожения
1026.4 917.3 -40.0 36
03 22.02 штиль 0 50 км ясно -30.4 -32.1 85 -30 -28 1022.7 917.8
06 22.02 штиль 0 50 км ясно -29.8 -32.8 75 -30 -29 1023.6 918.8
09 22.02 штиль 0 50 км ясно -37.8 -39.3 86 -38 -38 опасность
обморожения
1029.8 921.0
12 22.02 штиль 0 50 км 4/0 2000 м
[As trans]
-38.0 -39.7 84 -38 -38 опасность
обморожения
1031.9 922.9 -29.8
15 22.02 штиль 0 50 км 3/0 2000 м
[As trans]
-38.4 -40.1 84 -38 -38 опасность
обморожения
1033.5 924.0
18 22.02 штиль 0 50 км 9/9 700 м
[Sc]
-35.5 -37.1 85 -36 -36 опасность
обморожения
1033.4 925.2
21 22.02 штиль 0 50 км 6/6 870 м
[Sc]
-36.6 -38.1 86 -37 -37 опасность
обморожения
1035.3 926.5
00 23.02 штиль 0 50 км 8/0 2000 м
[Ac trans Ci fib]
-38.4 -40.1 84 -38 -38 опасность
обморожения
1037.7 927.9 -39.0 36
03 23.02 штиль 0 50 км 8/0
[Ci fib]
-30.0 -32.3 80 -30 -28 1034.5 928.5
06 23.02 В 1 50 км 8/0
[Ci fib]
-28.0 -31.1 75 -32 -31 опасность
обморожения
1033.9 928.8
09 23.02 штиль 0 50 км 10/0
[Ci fib]
-36.2 -38.4 80 -36 -36 опасность
обморожения
1039.2 930.1
12 23.02 штиль 0 10 км слабый снег 10/0
[As op Ci fib]
-35.0 -36.7 84 -35 -35 опасность
обморожения
1039.3 930.8 -27.6 0.0
15 23.02 штиль 0 4000 м слабый снег 10/0 2000 м
[As op]
-33.8 -35.5 85 -34 -34 опасность
обморожения
1038.6 930.6
18 23.02 штиль 0 4000 м слабый снег 10/0 2000 м
[As op]
-34.0 -35.5 86 -34 -34 опасность
обморожения
1038.4 930.3
21 23.02 штиль 0 4000 м слабый снег 10/0 2000 м
[As op]
-33.5 -35.3 84 -34 -34 опасность
обморожения
1037.6 929.8
00 24.02 штиль 0 50 км {снег} 5/0
[As op]
-34.0 -35.5 86 -34 -34 опасность
обморожения
1038.1 930.0 -40.0 0.2 36
03 24.02 штиль 0 50 км ясно -29.0 -32.0 75 -29 -27 1036.1 930.3
06 24.02 штиль 0 50 км ясно -27.5 -31.3 70 -28 -27 1034.7 929.7
09 24.02 штиль 0 50 км ясно -38.0 -40.3 79 -38 -38 опасность
обморожения
1040.8 930.8
12 24.02 штиль 0 50 км ясно -39.8 -41.5 84 -40 -40 опасность
обморожения
1042.2 931.2 -27.5
15 24.02 З 1 50 км ясно -41.5 -43.1 84 -47 -47 опасность
обморожения
1043.4 931.5
18 24.02 З 2 50 км ясно -42.0 -43.7 83 -51 -51 опасность
обморожения
1043.8 931.7
21 24.02 З 2 50 км ясно -43.2 -45.6 77 -53 -53 опасность
обморожения
1044.8 932.0
00 25.02 штиль 0 50 км ясно -42.8 -44.4 84 -43 -42 опасность
обморожения
1045.1 932.5 -43.5 36
03 25.02 штиль 0 50 км ясно -32.0 -35.0 75 -32 -30 опасность
обморожения
1039.7 932.3
06 25.02 штиль 0 50 км ясно -27.0 -30.9 69 -27 -26 1037.8 932.7
09 25.02 штиль 0 50 км ясно -29.6 -38.5 42 -30 -30 1043.7 933.8
12 25.02 штиль 0 50 км 10/0
[As trans]
-34.0 -35.5 86 -34 -34 опасность
обморожения
1043.8 935.1 -26.8
15 25.02 штиль 0 50 км 10/0 2000 м
[As trans]
-34.6 -36.1 86 -35 -35 опасность
обморожения
1044.2 935.3
18 25.02 штиль 0 50 км 10/0 2000 м
[As trans]
-35.5 -37.1 85 -36 -36 опасность
обморожения
1045.1 935.7
21 25.02 штиль 0 50 км 10/0 2000 м
[As trans]
-36.8 -38.5 84 -37 -37 опасность
обморожения
1046.1 936.0

 

Местоположение метеостанции Себян-Кюель (Якутия, Россия): широта 65.30 долгота 130.00 высота над уровнем моря 777 м.

В архиве по умолчанию представлена погода в Себян-Кюеле за последнюю неделю. Архивные данные за месяц целиком и за предыдущие месяцы, начиная с января 2011 года, Вы можете получить, выбрав интересующий диапазон дат из раскрывающегося списка и нажав кнопку "Ввод!".

Внимание! Время в таблицах - всемирное. Для получения местного времени необходимо прибавить поправку, которая в Себян-Кюеле равна 9 ч.

Смотрите также архив погоды в соседних городах и на ближайших метеорологических станциях:

Погода в Сеген-Кюели (Якутия, Россия) (145 км)
Погода в Екюччю (Якутия, Россия) (179 км)
Погода в Сангаре (Якутия, Россия) (195 км)
Погода в Батамае (Якутия, Россия) (200 км)
Погода в Сого-Хае (Якутия, Россия) (205 км)
Погода в Верхоянском Перевозе (Якутия, Россия) (240 км)
Погода в Иэме (Якутия, Россия) (269 км)
Погода в Бестяхской Звероферме (Якутия, Россия) (274 км)
Погода в Батагай-Алыте (Якутия, Россия) (276 км)
Погода в Намцах (Якутия, Россия) (288 км)

Пояснения к столбцам:

Ветер - указаны скорость ветра в м/с - средняя за 10 мин, порывы в срок и между сроками (в фигурных скобках) и направление, откуда дует ветер: С - северный, СВ - северо-восточный, В - восточный, ЮВ - юго-восточный, Ю - южный, ЮЗ - юго-западный, З - западный, СЗ - северо-западный.
Видимость - горизонтальная дальность видимости в метрах или километрах. При видимости от 1 до 10 км при отсутствии осадков обычно наблюдается дымка, при ухудшении видимости до 1 км и менее - туман. В сухую погоду видимость может ухудшаться дымом, пылью или мглою.
Явления - указаны атмосферные явления, наблюдавшиеся в срок или в последний час перед сроком; фигурными скобками обозначены явления, наблюдавшиеся между сроками (за 1-3 часа до срока); квадратными скобками обозначены град или гололедные отложения с указанием их диаметра в мм.
Облачность - указаны через наклонную черту общая и нижняя облачность в баллах и высота нижней границы облаков в метрах; квадратными скобками обозначены формы облаков: Ci - перистые, Cs - перисто-слоистые, Cc - перисто-кучевые, Ac - высококучевые, As - высокослоистые, Sc - слоисто-кучевые, Ns - слоисто-дождевые, Cu - кучевые, Cb - кучево-дождевые. Подробнее классификацию облаков см. в Атласе облаков (PDF).
T - Температура воздуха - температура, измеренная на высоте 2 м над землей.
Td - Температура точки росы - температура, при понижении до которой содержащийся в воздухе водяной пар достигнет насыщения.
f - Относительная влажность воздуха - влажноcть воздуха, измеренная на высоте 2 м над землей.
Te - Эффективная температура - температура, которую ощущает одетый по сезону человек в тени. Характеристика душности погоды. При расчете учитывается влияние влажности воздуха и скорости ветра на теплоощущения человека.
Tes - Эффективная температура на солнце - температура, которую ощущает человек, с поправкой на солнечный нагрев. Характеристика знойности погоды. Зависит от высоты солнца над горизонтом, облачности и скорости ветра. Ночью, в пасмурную погоду, а также при ветре 12 м/с и более поправка равна нулю.
P - Атмосферное давление - приведенное к уровню моря атмосферное давление.
Po - Атмосферное давление - измеренное на уровне метеостанции атмосферное давление.
Tmin - Минимальная температура - минимум температуры воздуха на высоте 2 м над землей.
Tmax - Максимальная температура - максимум температуры воздуха на высоте 2 м над землей.
R - Количество осадков - Количество выпавших осадков за период времени, мм. При наведении курсора мыши на число - период времени, за который выпало указанное количество осадков.
R24 - Количество осадков - Количество выпавших осадков за 24 часа, мм.
S - Снежный покров - Высота снежного покрова, см. При наведении курсора мыши на число - состояние снежного покрова и степень покрытия местности в баллах.